Location: Peebles
(55.6412°N, 3.1714°W)
Time: 08:54:49
(UTC+01:00)

Cosmos 923 Rocket - Pass Details

Date: 26 September 2021
Orbit: 759 x 784 km, 74.0° (Epoch: 20 October)

Event Time Altitude Azimuth Distance (km) Brightness Sun altitude
Rises 20:29:45 0° 332° (NNW) 3,233 8.0 -13.2°
Reaches altitude 10° 20:32:09 10° 334° (NNW) 2,303 7.1 -13.6°
Maximum altitude 20:37:22 73° 59° (ENE) 798 3.9 -14.3°
Enters shadow 20:41:24 17° 143° (SE) 1,852 5.5 -14.8°
